Regional Weather Roundup
Issued by NWS Kansas City/Pleasant Hill, MO

Home | Current Version | Previous Version | Graphics & Text | Print | Product List | Glossary Off
Versions: 1 2 3 4 5 6 7 8 9 10 11 12 13 14 15 16 17 18 19 20 21 22 23 24 25 26 27 28 29 30 31 32 33 34 35 36 37 38 39 40 41 42 43 44 45 46 47 48 49 50

000
ASUS43 KEAX 041510
RWREAX

WEATHER ROUNDUP FOR EASTERN KANSAS AND NORTHWEST MISSOURI
NATIONAL WEATHER SERVICE KANSAS CITY/PLEASANT HILL MO
1000 AM CDT SAT JUL 04 2015

KSZ040-057-103>105-MOZ028-029-037-043-041600-
...KANSAS CITY METROPOLITAN AREA...

CITY           SKY/WX    TMP DP  RH WIND       PRES   REMARKS
K.C. INTL      PTSUNNY   73  61  65 SE8       30.03R
K.C. DOWNTOWN  SUNNY     75  62  64 SE3       30.02R
LEES SUMMIT    SUNNY     74  60  61 SE5       30.04R
OLATHE - IXD   SUNNY     75  62  64 E7        30.04R
OLATHE - OJC   SUNNY     72  62  71 S6        30.03R
LAWRENCE       SUNNY     73  63  70 E3        30.03R

$$

MOZ001>008-011>017-020>025-030>033-038>040-044>046-053-054-041600-
...NORTHERN AND CENTRAL MISSOURI...

CITY           SKY/WX    TMP DP  RH WIND       PRES   REMARKS
ST. JOSEPH     SUNNY     73  63  70 SE3       30.03R
MOSBY          SUNNY     72  61  68 SE3       30.04R
HARRISONVILLE  SUNNY     77  63  61 SE7       30.06S
WARRENSBURG    SUNNY     73  63  68 SE3       30.03S
WHITEMAN AFB   SUNNY     74  64  69 VRB3      30.03R
CLINTON        SUNNY     75  64  69 SE8       30.04R
SEDALIA        SUNNY     76  64  66 SE7       30.05S
WARSAW         FAIR      75  64  69 CALM      30.04S
CHILLICOTHE      N/A     74  62  66 SE3       30.05R
KIRKSVILLE     SUNNY     74  63  68 VRB6      30.05R

$$

MOZ041-047>049-056>058-063>065-088>090-097-041600-
...EASTERN AND SOUTHERN MISSOURI...

CITY           SKY/WX    TMP DP  RH WIND       PRES   REMARKS
ST. LOUIS INTL MOSUNNY   77  65  66 CALM      30.04R
SPIRIT OF STL  MOSUNNY   75  68  78 CALM      30.02F
COLUMBIA       SUNNY     74  64  71 E6        30.04S
JEFFERSON CITY SUNNY     72  64  76 E5        30.03S
MEXICO         SUNNY     73  70  88 CALM      30.05R
ROLLA          MOSUNNY   73  67  81 SE5       30.04R
LEBANON        MOSUNNY   75  66  73 E6        30.05S
OSAGE BEACH    SUNNY     73  64  73 CALM      30.04S
SPRINGFIELD    MOSUNNY   77  64  64 SE7       30.02S
BRANSON        MOSUNNY   75  68  78 SE5       30.03S
JOPLIN         SUNNY     77  67  71 E7        30.02R
WEST PLAINS    MOSUNNY   76  67  73 E6        30.04R
MALDEN         CLOUDY    75  72  88 CALM      30.01R FOG

$$

IAZ060-094-KSZ022-034>040-054-083-096-NEZ052-066-093-041600-
...KANSAS...SOUTHEAST NEBRASKA AND IOWA...

CITY           SKY/WX    TMP DP  RH WIND       PRES   REMARKS
TOPEKA         SUNNY     74  65  73 CALM      30.03R
MANHATTAN      SUNNY     75  63  66 CALM      30.01F
EMPORIA        SUNNY     75  62  64 SE9       30.03R
CHANUTE        SUNNY     76  64  66 SE7       30.02R
WICHITA        MOSUNNY   76  66  71 SE7       30.01S
OMAHA          SUNNY     72  59  63 S6        30.01S
LINCOLN        SUNNY     73  61  65 S8        30.01S
FALLS CITY     SUNNY     72  61  68 SE7       30.02S
LAMONI         SUNNY     73  60  63 SW5       30.04R
DES MOINES     MOSUNNY   73  61  65 SW3       30.02R

$$




USA.gov is the U.S. government's official web portal to all federal, state and local government web resources and services.